RH
18 15 14 13 12 11 9 8 9 14 22 24 24 24 23 25 27 23 15 19 24 22 22 25 24 22 21 25 28 25 23 22 22 20 21 22 22 22 22 24 24 25 25 24 23 21 21
24 22 18 16 15 15 14 11 9 8 10 18 24 25 23 21 25 27 22 16 18 23 22 23 24 24 25 26 26 27 28 26 24 24 23 24 24 25 25 26 24 25 24 23 23 22 22
22 22 26 21 18 16 16 17 15 11 8 10 16 25 26 22 23 26 31 18 17 20 23 24 26 27 27 27 25 25 25 27 29 28 26 27 27 27 28 28 28 26 25 25 25 23 21
20 21 22 24 22 20 19 18 18 15 11 9 12 23 24 25 24 27 30 29 18 18 24 24 25 28 27 26 25 27 28 29 30 31 33 32 32 32 32 31 30 29 28 27 27 24 21
20 21 21 22 21 22 20 18 19 19 16 13 11 17 22 26 27 28 30 33 24 19 21 25 27 31 30 28 28 30 35 36 36 36 36 37 36 35 36 35 34 34 31 30 29 26 21
21 22 22 24 23 22 21 20 19 19 19 16 13 12 18 26 30 30 29 31 36 21 22 23 26 32 30 30 34 37 38 40 38 40 41 41 40 40 39 39 36 34 33 30 28 24 21
20 22 22 23 23 23 22 20 19 19 20 20 16 11 12 20 29 34 32 33 39 27 23 23 24 27 35 36 36 41 43 42 40 41 38 39 39 40 40 40 37 33 31 27 25 22 20
22 21 23 22 22 22 22 21 20 20 19 20 19 14 10 13 24 32 40 39 42 34 29 24 26 30 36 40 38 42 44 44 45 42 39 38 40 41 40 40 37 34 29 25 23 20 19
26 25 22 21 21 21 23 23 23 22 23 24 23 21 14 10 21 29 48 52 50 46 34 28 28 33 36 44 41 41 50 46 47 46 42 42 42 42 43 41 38 32 28 23 20 19 17
29 28 25 22 21 20 21 24 25 26 25 25 25 23 17 12 16 32 49 62 56 59 40 31 29 34 38 47 44 41 45 46 47 50 46 45 44 45 43 40 35 30 24 21 20 19 19
28 30 27 24 22 21 21 25 25 25 25 26 27 24 21 18 22 39 61 80 85 74 72 26 30 33 40 48 42 42 42 45 49 50 46 47 44 43 43 37 26 27 23 21 21 21 22
25 28 28 25 24 22 23 26 28 28 29 30 31 29 25 24 23 38 54 79 90 90 83 31 28 31 37 43 43 46 44 49 51 50 47 47 44 42 39 37 33 25 24 24 24 23 38
29 29 28 26 26 27 27 27 30 33 36 36 37 35 28 23 25 40 83 92 97 97 47 38 28 30 35 42 46 47 46 47 51 54 50 48 46 46 44 40 38 31 26 44 46 47 46
27 29 29 28 29 30 30 30 35 40 42 41 42 41 34 25 25 33 66 90 98 54 43 41 27 31 37 41 50 49 45 46 53 56 53 53 53 50 50 44 38 30 28 39 42 33 25
30 30 29 30 32 32 33 37 38 42 48 49 48 49 39 30 26 31 69 98 86 59 45 38 35 36 40 39 41 44 43 45 51 58 69 70 60 54 53 48 37 35 29 27 30 27 31
30 27 29 31 33 33 37 41 42 49 54 53 52 53 46 34 28 33 77 88 91 76 60 47 40 37 39 34 35 39 42 43 51 58 60 72 73 57 56 50 42 34 30 35 29 46 46
31 29 28 29 33 36 40 45 50 54 58 56 62 60 51 37 44 49 76 74 90 82 65 56 46 41 38 34 34 36 38 43 51 58 65 64 67 60 53 49 54 37 37 40 43 46 48
32 30 29 28 31 39 44 48 52 59 60 61 68 64 51 44 55 52 63 74 96 85 66 52 48 44 42 38 39 40 42 48 53 55 59 62 62 58 53 48 37 31 41 40 45 49 44
31 29 31 33 30 42 45 47 53 58 63 74 73 64 54 51 65 59 79 89 95 88 66 56 53 48 44 44 47 42 43 53 54 59 60 57 58 59 50 42 37 32 29 31 36 39 40
30 30 33 37 36 39 47 47 55 58 69 76 74 67 57 49 50 70 80 95 93 88 82 66 61 52 48 49 46 47 49 53 54 58 58 51 49 47 42 34 30 35 28 27 27 49 44
32 31 30 40 42 37 44 49 54 63 74 77 73 65 63 54 47 67 94 86 89 94 80 66 63 58 45 50 48 49 53 56 57 54 50 48 49 37 33 28 24 24 21 25 32 27 34
33 31 40 44 48 45 41 50 54 64 75 80 72 67 64 51 46 64 78 72 94 97 85 67 65 58 50 48 42 48 49 52 53 56 49 45 46 38 37 34 28 26 23 23 23 23 24
33 34 45 45 48 50 49 52 53 63 73 76 73 72 69 60 49 57 79 86 86 97 89 78 67 61 53 54 49 47 47 46 49 53 50 46 46 41 37 32 32 34 32 27 24 18 16
34 41 43 47 50 51 53 55 53 60 68 75 80 83 80 67 56 50 72 94 92 97 94 83 72 62 61 57 51 48 53 51 53 54 49 48 45 43 40 31 41 25 19 19 17 16 15
38 43 46 50 50 53 55 59 55 56 73 81 87 86 79 71 61 45 49 77 95 97 97 95 82 71 68 65 57 52 52 55 58 55 52 50 45 45 40 29 21 20 21 16 18 14 12
47 52 53 55 57 58 58 66 62 52 68 78 82 79 83 75 59 46 58 72 97 97 98 97 89 74 72 69 63 55 51 48 49 48 48 49 44 43 34 30 22 17 14 15 15 15 10
53 56 59 64 67 70 70 69 74 55 64 73 75 74 79 75 62 49 64 97 98 97 97 98 90 79 72 68 67 60 55 51 52 48 52 49 46 54 41 42 24 20 20 18 17 19 11
59 61 66 70 75 80 81 83 80 64 66 70 68 67 72 70 66 54 55 85 96 98 96 97 96 87 77 73 71 66 61 58 57 55 51 50 49 47 35 36 42 19 18 16 17 14 14
63 70 77 84 89 93 96 96 84 67 71 69 70 65 69 71 65 54 57 73 91 95 94 98 94 85 80 78 73 69 68 63 60 64 53 53 47 38 30 31 20 13 14 13 14 16 15